Regional Weather Roundup
Issued by NWS Goodland, KS

Home | Current Version | Previous Version | Graphics & Text | Print | Product List | Glossary On
Versions: 1 2 3 4 5 6 7 8 9 10 11 12 13 14 15 16 17 18 19 20 21 22 23 24 25 26 27 28 29 30 31 32 33 34 35 36 37 38 39 40 41 42 43 44 45 46 47 48 49 50
000
ASUS43 KGLD 252208
RWRGLD

GOODLAND FORECAST AREA HOURLY WEATHER ROUNDUP
NATIONAL WEATHER SERVICE GOODLAND KS
400 PM MDT SAT OCT 25 2014

...OFFICIAL OBSERVATIONS...

CITY           SKY/WX    TMP DP  RH WIND       PRES   REMARKS
GOODLAND KS    SUNNY     84  40  21 S13       30.02F
HILL CITY KS   SUNNY     88  45  22 S12       29.99F
IMPERIAL NEB   SUNNY     80  37  21 SE15      30.01F
MCCOOK NEB     SUNNY     83  45  26 E10       29.99F
AKRON CO       SUNNY     79  26  14 E7        30.07F
BURLINGTON CO  SUNNY     83  33  16 S9        30.04F
LIMON CO       SUNNY     79  19  10 S8        30.11F
$$

...UNOFFICIAL OBSERVATIONS...

CITY           SKY/WX    TMP DP  RH WIND       PRES   REMARKS
COLBY KS       SUNNY     86  46  25 S12       30.02S
NORTON KS      SUNNY     82  41  23 E9        29.99F
SHARON SPRINGS   N/A     86  43  21 S9G16       N/A
TRIBUNE KS     SUNNY     84  50  30 S7        30.04F
KIT CARSON CO    N/A     83  39  20 CALM        N/A
YUMA CO          N/A     80  32  17 E6          N/A
$$



USA.gov is the U.S. government's official web portal to all federal, state and local government web resources and services.